Location: Parc National du Mont-Orford
(45.3122°N, 72.2403°W)
Time: 17:11:12
(UTC-04:00)

Envisat - Pass Details

Date: 30 January 2018
Orbit: 764 x 766 km, 98.2° (Epoch: 24 May)

Event Time Altitude Azimuth Distance (km) Brightness Sun altitude
Exits shadow 17:34:46 - 89° (E) 2,458 5.0 -7.6°
Reaches altitude 10° 17:35:36 10° 80° (E) 2,303 4.8 -7.8°
Maximum altitude 17:37:40 13° 56° (NE) 2,133 4.7 -8.1°
Drops below altitude 10° 17:39:43 10° 32° (NNE) 2,309 5.0 -8.5°
Sets 17:43:24 0° 4° (N) 3,241 6.0 -9.1°
